Theta_e
309 308 309 309 309 310 310 309 309 310 310 311 312 312 312 311 304 304 309 303 310 314 308 312 315 310 309 309 313 314 313 316 317 318 319 320 322 321 320 322 323 327 327 327 326
308 308 308 308 308 309 309 309 309 310 311 311 311 312 311 310 309 310 306 304 306 312 316 314 311 308 307 310 311 310 310 314 316 317 318 318 319 318 319 320 323 325 325 326 324
307 307 307 308 308 308 308 309 310 311 311 311 310 311 310 308 311 314 316 308 307 313 313 310 310 315 312 309 310 310 313 313 314 316 317 318 318 317 319 319 321 326 325 324 322
306 307 308 308 308 308 309 309 310 310 311 311 310 310 308 310 312 316 315 312 312 311 309 316 316 316 310 310 308 309 311 312 314 315 316 318 318 319 319 321 323 324 324 322 321
307 307 307 307 308 308 309 309 310 310 310 309 310 309 310 314 313 306 314 313 310 311 314 316 318 314 312 309 309 309 310 311 313 314 315 316 318 318 319 320 322 324 325 324 319
306 307 307 307 308 308 309 309 310 309 310 310 311 309 312 313 307 315 311 310 311 311 313 314 314 310 311 310 311 311 311 311 311 311 311 314 316 317 318 320 326 325 324 323 321
305 306 308 308 308 309 309 309 308 309 310 311 309 310 312 309 313 315 311 312 312 313 314 315 313 311 310 310 310 311 311 310 311 312 313 315 314 316 317 318 319 319 318 321 320
299 302 306 308 308 307 308 308 309 310 310 311 306 312 309 307 312 312 311 314 314 315 314 314 313 311 311 309 310 310 310 310 310 313 312 314 313 314 315 317 317 317 317 318 320
296 298 305 306 306 308 308 309 310 313 308 308 308 311 312 317 316 316 314 314 315 315 315 314 312 310 310 309 307 307 309 310 310 311 312 312 313 314 314 315 315 315 315 316 315
298 298 305 305 306 308 309 310 312 313 313 312 312 312 314 320 313 315 312 313 314 313 311 312 308 309 306 306 308 309 310 310 311 312 312 311 312 313 313 314 315 313 312 314 315
299 299 304 306 307 308 309 311 313 316 315 314 316 315 317 319 315 311 312 313 313 311 310 309 308 308 309 309 310 310 311 311 312 312 314 312 311 312 312 313 312 312 312 313 314
302 301 300 307 308 309 309 311 316 313 311 316 317 315 317 318 319 313 314 313 312 311 310 309 309 310 311 312 312 312 312 312 312 313 313 311 312 312 313 313 312 312 313 313 312
304 303 301 305 308 309 312 313 316 316 313 315 316 317 318 318 318 315 313 312 312 311 311 310 311 312 313 312 313 313 312 312 312 313 312 312 312 313 314 313 313 312 312 313 313
306 304 303 302 310 311 311 316 316 315 314 318 318 316 314 313 314 314 314 312 311 312 310 309 310 311 312 313 313 311 311 313 313 312 312 313 311 311 313 313 312 311 311 310 312
307 305 305 303 305 309 315 315 315 315 326 323 315 314 312 313 314 314 314 312 312 312 311 312 312 311 312 313 313 313 312 314 314 312 311 311 310 310 311 312 311 311 311 311 311
309 306 304 306 309 311 313 314 314 321 329 323 315 314 312 313 314 314 314 312 312 311 311 310 311 312 313 317 315 315 313 312 311 309 312 311 311 312 311 311 311 312 312 312 310
310 308 307 308 308 311 311 313 317 324 324 323 321 315 312 313 314 314 313 312 312 311 312 317 315 316 317 319 317 318 312 311 312 311 314 315 317 313 312 315 316 316 315 312 311
310 309 312 314 303 306 314 315 321 321 322 319 316 316 315 314 314 315 314 313 313 316 319 322 321 320 319 321 322 322 322 323 317 315 314 316 318 316 317 317 316 312 311 310 311
310 308 312 318 311 310 311 317 319 321 319 316 315 315 315 313 314 314 314 316 318 317 320 323 324 319 318 317 320 321 321 320 322 321 317 313 315 315 315 317 316 316 312 310 311
307 308 312 318 317 315 312 317 317 317 316 316 314 314 313 312 314 313 314 316 317 316 315 318 319 317 316 316 318 319 318 319 320 323 323 316 317 316 319 317 317 316 316 314 312
304 309 317 319 318 311 314 315 316 316 312 313 313 313 313 314 313 313 314 314 315 315 314 315 316 316 315 315 317 317 318 317 317 320 322 321 316 316 318 318 318 317 317 313 313
302 307 313 317 313 311 312 315 311 313 312 312 313 312 313 313 313 313 314 314 315 315 316 314 314 316 316 313 314 316 318 317 318 319 322 318 316 315 317 318 317 317 317 316 315
305 305 313 313 314 312 311 314 313 312 312 312 312 312 310 310 311 314 312 313 315 314 315 314 312 311 311 310 313 314 315 318 316 316 317 322 321 316 317 316 317 316 317 317 316
302 312 310 309 310 310 312 315 315 314 312 309 309 309 308 309 309 309 311 311 313 314 317 313 310 311 312 312 309 314 314 315 315 315 316 320 318 316 316 316 316 316 316 316 317
305 310 305 308 308 309 311 313 312 311 309 308 308 310 309 309 309 309 310 310 310 318 316 310 312 312 313 314 314 313 313 312 316 314 316 314 314 314 317 315 314 314 316 316 315
309 304 303 304 306 312 314 314 313 311 307 308 307 309 307 308 309 310 309 308 309 308 308 309 308 315 315 312 311 313 312 313 313 315 315 315 316 316 314 313 313 310 310 311 313
301 303 303 305 308 312 314 314 313 310 307 306 306 307 308 308 308 306 305 305 306 308 307 307 308 309 312 312 313 313 318 318 317 317 317 318 315 314 311 311 310 309 308 309 309
Wind_Speed
21 20 19 19 19 19 18 18 17 17 17 17 18 18 18 18 19 13 9 14 7 4 13 12 11 9 7 4 5 3 1 9 9 10 11 20 5 9 6 4 7 5 5 11 17
21 21 20 19 18 19 19 19 18 18 17 16 17 17 17 16 18 15 21 16 16 7 8 9 5 3 2 5 4 6 5 7 5 6 7 14 6 8 8 16 5 3 7 6 9
22 21 20 20 19 19 19 19 18 17 16 15 15 14 14 13 5 7 10 8 14 10 14 7 9 1 5 3 5 5 10 4 8 10 15 19 24 5 6 10 9 5 6 4 5
22 22 21 20 20 20 20 18 18 16 15 14 12 12 11 3 1 4 1 8 11 11 9 4 1 3 4 5 6 7 7 13 14 15 16 16 15 13 6 9 10 11 10 8 8
23 22 22 21 21 20 19 18 16 15 14 12 10 8 2 1 9 9 6 9 11 10 9 4 2 2 4 5 3 5 7 11 16 17 19 18 22 17 15 9 11 9 6 8 9
25 24 22 22 21 20 18 17 16 14 12 11 8 4 2 4 6 7 13 13 10 12 5 7 6 8 5 5 3 5 5 9 10 12 9 15 20 5 8 7 5 7 7 7 9
26 26 23 22 21 19 17 16 14 13 12 9 4 1 3 13 2 8 14 14 12 14 4 12 9 4 4 7 1 6 7 9 5 4 6 3 9 18 7 6 7 8 6 8 7
29 28 25 22 20 17 14 10 9 8 10 6 2 3 7 8 8 11 17 18 17 17 19 19 9 1 2 3 9 5 4 4 5 3 6 5 16 12 5 6 10 9 8 8 10
34 30 26 23 18 15 12 8 6 7 7 1 4 2 9 14 5 15 19 18 22 22 22 14 1 2 5 3 5 5 5 8 9 6 4 5 16 8 10 8 10 8 8 9 9
35 33 25 22 19 15 14 11 8 5 2 1 5 3 7 3 7 14 10 16 5 3 2 1 4 1 4 4 4 6 5 7 7 12 4 10 17 13 19 11 16 9 8 9 9
35 34 25 20 18 18 19 5 3 1 4 8 7 6 12 12 12 7 11 6 2 4 1 6 2 6 13 11 12 9 12 15 16 10 4 7 9 11 16 12 11 5 6 6 8
36 35 25 20 17 19 15 1 7 2 9 15 18 15 24 15 6 6 9 5 3 5 3 5 7 15 10 13 12 13 17 18 13 9 5 8 13 8 8 7 7 9 7 7 5
42 35 25 20 20 12 7 12 21 19 4 9 8 7 8 8 10 8 9 6 6 6 7 8 12 11 12 16 17 18 12 6 7 6 5 3 8 5 5 6 4 6 6 6 10
45 37 27 21 7 7 8 16 24 4 4 6 5 6 5 8 5 13 17 9 6 13 9 8 10 10 10 7 9 6 7 6 7 3 6 3 5 4 5 7 8 8 9 9 10
48 40 34 15 11 4 8 23 22 2 3 3 4 7 7 8 2 3 17 5 12 11 6 12 7 11 12 9 11 9 9 4 1 2 1 1 1 6 6 13 11 11 10 11 12
51 47 35 5 8 15 14 22 6 4 3 3 4 4 5 5 5 4 7 5 6 6 6 10 4 4 3 12 7 8 6 0 2 3 3 2 4 14 6 6 6 13 16 14 10
54 48 20 7 5 1 16 5 4 2 4 9 4 2 6 5 5 5 6 8 9 3 4 8 7 8 10 6 4 9 5 5 6 3 11 5 2 13 5 12 16 20 23 17 10
53 41 15 12 6 8 7 4 2 4 4 11 6 7 3 8 7 9 7 2 2 3 3 2 7 6 4 1 5 4 7 3 4 3 10 3 7 13 6 8 14 13 12 8 8
52 27 8 2 4 3 4 2 5 2 9 5 3 3 4 7 1 6 5 3 4 2 4 6 7 7 11 12 6 0 5 13 6 13 5 4 7 12 17 9 5 13 14 5 7
38 12 9 7 7 4 4 4 4 3 13 6 1 1 3 6 5 5 3 2 3 3 2 4 5 7 4 5 6 4 12 2 2 6 5 4 5 8 5 6 8 8 12 15 11
12 4 4 8 10 4 2 5 5 10 9 4 4 3 3 3 3 3 4 1 4 3 6 3 3 5 5 3 4 1 2 4 4 2 3 3 5 3 4 6 7 3 6 9 10
5 4 3 8 1 1 2 5 7 9 11 5 2 2 2 0 2 3 4 3 3 2 3 1 4 3 8 8 5 4 4 1 1 3 2 2 6 4 4 2 3 7 4 6 7
5 3 10 3 2 4 6 8 4 7 8 5 3 4 3 3 4 3 4 2 4 4 7 5 1 3 8 5 1 2 5 5 1 3 5 2 4 6 7 7 8 7 15 14 12
3 3 4 3 1 3 5 6 11 10 6 5 3 2 4 3 3 4 4 3 2 4 7 6 3 6 5 6 5 6 6 10 6 3 4 6 12 15 12 8 8 7 6 7 6
0 2 2 3 4 9 8 6 10 10 4 3 3 4 1 2 3 3 3 5 7 4 4 4 5 4 6 9 12 13 14 13 10 7 7 11 9 2 5 6 7 7 6 9 7
3 3 4 4 5 5 3 6 10 15 9 4 4 3 2 1 3 3 0 1 4 1 2 0 3 2 4 12 11 12 14 12 14 10 14 10 12 5 7 7 8 9 10 10 10
6 5 2 5 5 1 2 5 14 15 9 10 7 5 5 4 5 7 7 6 6 4 2 2 3 1 4 5 13 5 7 6 6 7 3 2 3 3 5 9 8 7 12 13 11
Wind_Direction
335 332 329 326 322 319 317 316 315 315 313 314 318 319 319 318 314 299 235 240 212 269 246 259 282 258 248 225 211 150 201 234 225 225 252 289 298 292 264 316 309 178 144 177 171
333 330 327 323 318 316 314 313 312 311 311 314 318 321 323 325 315 263 274 244 239 249 239 229 258 261 217 212 221 163 202 235 223 237 248 268 239 296 326 302 268 17 36 91 168
333 330 326 323 319 315 312 310 309 309 309 312 316 320 323 333 308 254 329 193 208 217 237 251 245 172 218 214 219 209 239 240 258 250 252 262 277 259 282 278 256 262 164 109 92
336 331 327 323 320 317 313 310 308 307 307 310 316 321 324 315 271 298 87 162 189 210 216 215 290 201 214 215 227 240 255 233 253 249 258 261 273 267 218 247 241 204 198 155 131
339 334 330 325 322 318 314 311 308 306 306 308 313 326 52 236 251 243 195 171 183 191 213 176 253 195 238 248 266 191 240 243 241 248 250 256 263 260 250 240 247 251 157 160 164
343 337 332 328 324 320 316 312 308 306 307 304 303 331 147 268 269 254 193 185 194 205 213 174 231 227 243 230 174 263 268 259 254 250 255 260 268 224 238 199 226 215 228 189 180
347 343 336 331 327 323 319 313 312 314 307 297 288 252 253 238 237 209 195 208 213 218 247 264 237 43 327 332 31 296 306 312 256 236 232 231 278 252 169 203 194 240 272 271 220
355 351 341 335 333 328 328 333 331 337 323 284 177 180 250 262 286 248 229 245 247 245 237 268 295 197 82 301 346 339 334 312 288 298 266 161 263 267 245 212 237 206 228 216 234
359 356 350 344 340 341 342 325 311 341 347 169 155 165 268 311 231 245 223 221 245 246 255 255 193 164 354 23 357 353 260 289 303 244 257 177 273 260 259 228 237 223 219 241 225
359 355 352 350 343 339 339 311 287 292 58 63 274 321 272 268 228 232 222 224 237 284 64 333 42 194 359 86 232 251 277 268 261 282 242 269 269 275 265 225 242 228 231 225 228
358 354 347 347 343 336 337 335 20 58 213 206 215 238 284 301 183 193 195 215 243 66 331 296 120 228 237 221 232 242 256 264 275 274 244 245 274 279 280 216 236 232 226 232 171
355 352 344 336 333 321 321 200 242 285 293 226 238 224 253 262 295 210 182 161 170 224 261 343 264 254 241 255 246 248 251 263 272 252 273 287 288 283 284 221 185 197 230 223 266
352 349 341 328 321 311 299 268 318 310 292 297 215 221 227 195 240 219 166 190 201 217 234 214 250 276 264 261 262 254 243 235 247 280 287 291 289 292 302 298 239 233 224 222 213
351 349 341 326 316 312 272 332 338 208 25 278 195 234 187 176 263 217 196 168 199 220 235 241 254 258 295 290 288 238 236 257 284 351 259 107 273 295 263 288 294 278 281 244 230
350 346 338 319 291 277 309 338 333 66 348 215 180 167 156 157 203 252 198 179 220 220 144 242 267 287 294 278 291 269 265 239 158 239 340 211 182 266 312 283 270 281 266 258 236
347 342 330 310 234 260 321 329 329 53 266 237 132 192 135 238 241 257 191 190 220 217 217 242 236 198 265 320 299 305 269 328 80 121 286 163 178 286 248 252 278 270 266 257 245
343 340 317 249 230 280 325 2 52 156 275 349 3 93 219 246 242 242 226 215 214 218 348 4 321 318 311 317 349 44 40 296 269 326 255 93 338 244 296 291 279 284 269 247 222
340 339 320 294 283 276 345 57 187 255 334 345 14 338 339 39 335 353 10 240 265 111 96 27 326 2 27 356 305 288 164 155 262 223 277 159 231 256 229 295 293 291 270 159 143
340 339 306 276 194 226 66 90 218 261 339 333 355 305 352 357 329 15 339 19 90 62 191 179 243 267 277 266 148 246 223 215 215 237 276 245 290 307 275 224 32 350 8 68 140
336 327 288 179 181 114 77 242 271 314 322 286 148 328 322 314 335 360 314 79 99 134 136 197 280 224 294 308 205 108 311 27 101 187 215 261 251 246 322 295 85 18 3 28 12
342 344 306 159 171 56 178 236 270 314 338 280 226 250 328 22 342 352 295 331 169 177 98 140 147 283 321 244 175 352 319 339 117 168 201 277 254 226 191 80 57 57 328 42 25
9 332 46 164 21 287 251 299 317 327 341 300 97 147 114 163 289 260 236 264 166 143 122 103 150 263 250 272 195 120 133 348 204 208 250 290 272 354 124 238 113 127 349 28 360
330 273 345 173 317 343 316 310 278 330 324 302 7 39 44 26 354 319 354 339 145 149 162 184 213 327 331 4 7 161 192 174 337 119 213 209 251 269 316 325 278 209 192 220 289
338 326 336 28 46 37 337 303 334 320 319 17 11 51 17 354 164 279 314 348 88 185 147 131 157 182 217 246 234 284 238 205 178 166 214 230 267 275 327 341 336 277 234 197 212
130 277 16 330 342 333 342 286 339 341 356 29 322 14 69 286 288 273 342 351 2 132 147 136 200 226 257 273 282 276 269 265 206 214 193 261 258 344 315 318 307 325 300 254 239
330 9 341 289 283 348 347 295 329 334 325 322 357 310 64 256 243 253 332 230 221 328 46 328 259 249 265 271 281 300 296 275 263 257 244 264 275 29 329 330 349 341 339 332 314
343 345 48 287 299 348 262 307 317 315 300 319 316 307 288 240 228 226 210 205 212 206 250 207 172 20 274 306 306 310 334 5 20 54 320 259 283 327 311 318 311 298 299 290 269